Temperature
19 19 19 19 18 18 18 18 18 18 18 18 18 18 18 18 18 18 18 18 18 18 18 18 18 18 18 18 18 17 17 17 17 17 17 17 17 17 17 16 16 16 16
19 19 19 19 18 18 18 18 18 18 18 18 18 18 18 18 18 18 18 18 18 18 18 18 18 18 18 18 17 17 17 17 17 17 17 17 17 17 17 16 16 16 16
19 19 19 19 18 18 18 18 18 18 18 18 18 18 18 18 18 18 18 18 18 18 18 18 18 18 18 18 17 17 17 17 17 17 17 17 17 17 16 16 16 16 16
19 19 19 19 18 18 18 18 18 18 18 18 18 18 18 18 18 18 18 18 18 18 18 18 18 18 18 18 18 17 17 17 17 17 17 17 17 17 16 16 16 16 16
19 19 19 19 18 18 18 18 18 18 18 18 18 18 18 18 18 18 18 18 18 18 18 18 18 18 18 18 18 17 17 17 17 17 17 17 17 17 17 16 16 16 16
19 19 19 19 18 18 18 18 18 18 18 18 18 18 18 18 18 18 18 18 18 18 18 18 18 18 17 17 17 17 17 17 17 17 17 17 17 17 17 17 16 16 16
19 19 19 19 19 18 18 18 18 18 18 18 18 18 18 18 18 18 18 18 18 18 18 18 18 18 17 17 17 17 17 17 17 17 17 17 17 17 17 16 16 16 16
19 19 19 19 19 18 18 18 18 18 18 18 18 18 18 18 18 18 18 18 18 18 18 18 18 17 17 17 17 17 17 17 17 17 17 17 16 17 16 16 16 16 16
19 19 19 19 19 18 18 18 18 18 18 18 18 18 18 18 18 17 18 18 18 17 18 18 17 17 17 17 17 17 17 17 17 17 17 17 17 16 16 16 16 16 16
19 19 19 18 18 18 18 18 18 18 18 18 18 18 18 18 17 17 17 17 17 17 17 17 17 17 17 17 17 17 17 17 17 17 17 17 17 16 16 16 16 16 16
19 19 18 18 18 18 18 18 18 18 18 18 18 18 18 18 17 17 17 17 17 17 17 17 17 17 17 17 17 17 17 17 17 17 16 16 16 16 16 16 16 16 16
19 19 18 18 18 18 18 18 18 18 18 18 18 18 17 17 17 17 17 17 17 17 17 17 17 17 17 17 17 17 17 17 16 16 16 16 16 16 16 16 16 16 16
19 18 18 18 18 18 18 18 18 18 17 17 17 17 17 17 17 17 17 17 17 17 17 17 17 16 16 16 16 16 16 16 16 16 16 16 16 16 16 16 16 16 16
19 18 18 18 18 18 18 18 17 17 17 17 17 17 17 17 17 17 16 16 16 16 16 16 16 16 16 16 16 16 16 16 16 16 16 16 16 16 16 15 15 15 15
19 18 18 18 18 18 18 18 17 17 17 17 17 17 17 17 17 16 16 16 16 16 16 16 16 16 16 16 16 16 16 16 16 16 16 16 16 15 15 15 15 15 15
18 18 18 18 18 18 18 17 17 17 17 17 17 17 17 16 16 16 16 16 16 16 16 16 16 16 16 16 16 16 16 16 16 15 15 15 15 15 15 15 15 15 15
18 18 18 18 18 18 17 17 17 17 17 17 17 16 16 16 16 16 16 16 16 16 16 16 16 16 16 16 16 16 16 16 15 15 15 15 15 15 15 15 15 15 15
18 18 18 18 18 17 17 17 17 17 17 17 16 16 16 16 16 16 16 16 16 16 15 15 15 15 15 15 15 15 15 15 15 15 15 15 15 15 15 15 15 15 15
18 18 18 18 17 17 17 17 17 17 16 16 16 16 16 16 16 16 16 16 16 15 15 15 15 15 15 15 15 15 15 15 15 15 15 15 15 15 15 15 15 14 14
18 18 18 17 17 17 17 17 17 16 16 16 16 16 16 16 16 16 15 15 15 15 15 15 15 15 15 14 14 14 14 15 15 15 14 14 14 14 14 14 14 14 14
18 17 17 17 17 17 17 16 16 16 16 16 16 16 16 15 15 15 15 15 15 15 14 14 14 14 14 14 14 14 14 14 14 14 14 14 14 14 14 14 14 14 14
18 17 17 17 17 17 16 16 16 16 16 16 16 16 15 15 15 15 15 15 14 14 14 14 14 14 14 14 14 14 13 13 13 14 14 14 14 14 14 14 14 14 14
17 17 17 17 17 17 16 16 16 16 16 15 15 15 15 15 15 15 15 14 14 14 14 14 14 14 14 14 13 13 13 13 13 13 13 13 13 14 14 14 13 13 13
17 17 17 17 17 17 16 16 16 16 15 15 15 15 15 15 15 15 14 14 14 14 14 14 13 13 13 13 13 13 13 13 13 13 13 13 13 13 13 13 13 13 13
17 17 17 17 16 16 16 16 15 15 15 15 15 15 15 15 15 14 14 14 14 14 14 13 13 13 13 13 13 13 13 13 13 13 13 12 13 13 13 13 13 13 13
17 17 16 16 16 16 16 15 15 15 15 15 15 15 14 14 14 14 14 14 14 14 13 13 13 13 13 13 13 13 13 12 12 12 13 12 12 12 12 12 12 12 12
Wind_Speed
3 3 2 2 2 2 2 2 2 1 1 2 3 4 4 6 7 7 8 10 9 9 9 10 10 10 9 9 9 8 8 8 8 9 9 10 10 10 11 11 11 11 12
4 2 2 1 2 3 3 3 3 2 1 2 2 3 4 5 7 7 7 9 10 10 10 10 10 9 9 8 8 8 8 8 8 8 9 10 10 10 10 10 10 10 10
5 3 2 1 1 2 3 2 1 1 1 2 1 2 2 4 5 7 7 8 8 9 10 10 10 9 9 8 8 7 7 8 8 9 9 9 10 10 10 10 10 10 11
6 4 2 1 1 2 2 2 1 1 1 1 1 1 2 3 4 6 6 7 7 7 9 11 10 10 9 9 8 8 8 8 8 8 8 8 9 10 11 11 11 11 11
6 4 2 1 2 2 1 1 1 2 1 1 1 1 1 2 2 4 4 6 7 7 8 9 11 11 10 9 9 9 8 8 8 7 7 7 8 9 10 10 10 10 10
6 4 2 1 2 2 1 1 1 1 1 1 1 1 1 2 2 2 3 4 6 7 7 7 7 8 10 9 8 8 7 7 7 7 7 6 7 7 8 9 9 10 9
5 4 2 2 2 2 1 1 1 1 0 1 2 2 2 1 1 2 2 2 3 4 5 6 7 6 5 7 7 7 7 6 6 7 7 7 7 8 8 8 9 10 10
5 4 3 3 2 2 1 1 2 1 0 1 2 2 2 3 2 1 1 2 2 2 3 5 6 6 5 4 5 7 7 7 7 7 8 8 7 7 8 8 8 9 9
5 4 4 3 2 2 2 1 1 2 1 0 1 3 2 2 2 3 2 1 1 1 2 3 5 6 6 6 6 7 7 7 7 8 8 9 8 8 8 8 8 8 9
4 5 4 3 3 2 2 1 1 1 2 1 1 0 2 3 2 1 3 2 1 1 2 2 3 5 6 6 6 7 8 8 8 8 9 8 8 8 8 8 8 8 8
3 4 4 3 3 2 2 1 1 2 1 2 1 0 1 1 2 2 1 2 2 2 2 3 3 4 6 6 6 7 8 8 8 9 9 8 8 8 8 8 8 8 8
2 3 3 2 3 2 2 2 1 2 1 1 1 1 1 1 1 2 2 2 2 3 2 2 3 4 6 6 7 8 9 8 7 7 7 8 8 8 8 8 8 7 7
2 3 3 3 2 2 2 2 2 1 1 1 1 0 1 1 1 2 2 1 2 2 2 2 3 3 5 6 7 9 8 8 8 8 8 8 8 8 7 8 8 8 7
4 4 3 3 3 3 2 2 2 1 1 1 1 0 0 1 1 1 2 2 0 2 2 3 2 2 3 6 8 8 7 8 9 10 9 9 9 8 8 8 8 8 8
4 4 3 3 3 3 3 3 2 1 1 1 1 0 0 0 0 1 1 2 3 1 3 3 2 2 3 5 6 7 7 9 10 11 10 10 10 9 9 9 9 9 9
4 4 4 4 3 3 3 3 2 1 1 1 1 1 0 1 0 0 1 1 2 2 2 3 3 3 3 3 5 6 8 9 11 11 11 10 10 10 10 10 10 9 9
5 5 5 5 4 3 3 3 2 2 1 1 1 1 1 1 1 1 0 1 1 1 2 3 2 2 2 3 3 4 6 7 8 10 10 9 9 9 9 10 10 10 9
5 6 6 5 5 4 3 3 3 2 2 2 2 1 1 1 1 1 0 0 1 1 2 2 3 2 2 3 3 3 3 4 6 8 8 9 8 8 8 9 9 9 10
5 6 6 6 5 4 4 4 4 3 3 3 3 3 2 1 2 2 1 1 1 1 1 1 2 2 2 2 2 3 3 3 4 4 7 8 8 8 8 8 8 8 9
6 6 6 6 6 5 4 4 4 4 3 3 3 3 3 3 3 3 2 2 1 0 0 1 2 2 2 2 1 2 3 3 3 3 3 4 5 6 7 8 8 8 8
7 6 6 5 5 5 5 5 4 5 4 3 3 3 3 4 4 3 2 2 2 1 1 1 2 1 2 2 2 2 2 3 3 2 2 2 2 3 4 6 7 8 8
6 6 6 6 6 5 6 8 6 5 4 4 4 3 4 3 3 4 4 4 4 3 3 2 2 2 3 3 2 2 2 2 3 2 1 3 2 3 4 5 6 7 7
6 6 6 5 5 5 6 7 8 5 4 4 4 3 3 2 2 2 3 3 3 4 5 4 4 4 4 4 3 2 3 3 4 3 1 3 2 3 4 5 7 7 7
6 6 6 5 4 4 5 6 6 5 3 4 4 4 3 3 2 2 1 2 3 3 4 4 5 6 5 4 4 4 4 3 3 2 2 3 3 3 3 4 6 6 6
5 5 5 5 5 4 4 4 5 3 2 3 3 3 3 3 3 2 1 2 3 4 4 4 5 5 6 5 3 1 1 1 3 3 2 2 2 2 2 3 4 5 5
5 5 4 4 5 4 4 5 6 3 3 2 2 3 4 4 3 2 2 2 3 4 3 4 4 4 3 3 3 4 4 2 2 3 2 1 2 1 2 2 2 3 3
Wind_Direction
138 145 163 174 191 187 197 202 207 206 190 182 179 166 166 169 169 169 174 178 180 178 179 179 179 183 190 194 198 203 207 211 214 213 212 214 217 220 219 217 220 221 223
152 144 142 167 199 190 181 179 190 191 187 173 172 166 164 165 165 168 175 184 188 187 184 185 184 189 191 196 203 208 213 217 218 218 218 218 217 217 219 220 222 224 225
154 147 140 145 205 193 161 158 168 135 147 147 153 164 155 159 164 169 180 183 188 194 191 191 193 197 199 201 206 210 216 218 217 218 220 219 218 218 221 225 227 228 229
146 141 133 142 147 123 125 129 128 105 101 129 163 197 159 154 163 170 178 185 190 197 198 198 198 200 204 211 213 214 217 217 217 219 220 220 220 222 225 227 229 230 231
139 140 136 153 127 105 98 128 113 131 141 155 181 176 173 175 184 181 178 187 195 200 200 204 206 207 209 216 219 220 221 220 218 217 217 219 223 224 225 226 228 231 232
142 140 137 128 119 108 93 89 108 119 154 166 163 149 208 208 189 189 189 186 197 203 201 202 205 216 218 219 222 225 226 224 221 218 216 219 222 222 225 226 227 228 230
144 139 141 129 122 119 132 119 118 111 43 105 88 33 354 343 191 203 197 180 194 200 186 191 195 201 210 222 229 232 232 230 228 223 222 224 228 227 227 230 230 228 230
150 151 143 149 141 126 97 86 116 116 228 124 124 102 25 355 343 288 222 179 181 187 189 189 189 190 191 197 221 228 230 233 234 233 229 229 231 233 231 235 235 232 232
145 145 146 148 143 137 140 141 136 131 151 288 133 141 142 209 306 328 316 288 201 188 215 187 189 199 199 203 214 225 227 231 236 237 232 231 231 236 237 237 238 235 235
148 148 146 139 140 138 145 163 125 133 137 163 296 99 157 156 145 304 323 318 277 216 218 205 204 202 202 197 206 219 224 229 236 237 235 232 231 234 234 235 238 238 236
153 152 146 140 144 148 151 130 100 122 140 162 171 141 69 74 113 147 259 301 318 291 237 217 215 206 206 203 209 219 222 222 227 234 235 235 235 235 233 231 234 239 238
160 156 153 150 154 154 155 149 139 127 128 123 139 128 136 147 186 160 199 244 267 281 263 238 222 218 214 213 222 223 223 220 223 231 236 240 239 238 236 236 238 239 240
176 188 172 165 161 164 158 145 132 125 133 134 159 164 154 194 186 166 168 224 258 279 291 269 238 219 215 213 226 227 226 224 226 233 239 241 242 242 240 239 241 240 239
193 186 178 173 169 156 153 143 138 161 129 146 181 154 169 249 155 161 168 162 282 304 293 277 281 229 221 219 227 225 225 228 228 233 238 239 240 243 241 242 242 241 240
182 173 167 163 161 153 152 146 156 180 144 159 190 160 138 296 115 161 152 152 158 247 277 274 278 268 241 228 233 227 230 234 234 237 239 240 240 241 240 241 241 239 239
176 164 161 155 153 152 149 147 150 164 148 203 196 147 316 290 322 11 144 141 149 173 241 263 258 265 251 257 250 240 241 236 233 237 241 241 242 241 241 241 242 240 240
169 168 166 159 158 163 161 157 174 171 183 243 265 167 265 275 313 341 48 88 128 154 222 280 282 290 277 282 287 270 257 240 239 241 243 241 244 245 243 242 242 241 242
176 175 170 165 173 178 174 173 192 194 204 228 237 218 269 286 300 292 268 262 238 190 188 269 291 298 279 273 280 280 278 256 244 245 240 238 242 246 246 246 245 242 242
175 172 170 175 182 183 182 190 194 206 219 227 220 213 229 214 275 271 253 264 260 286 195 227 276 285 296 302 311 301 294 292 267 257 241 241 244 249 248 246 244 239 238
176 178 179 182 185 185 185 191 197 205 224 232 225 218 215 208 227 240 248 247 239 306 330 281 287 295 305 304 317 303 308 302 284 276 265 252 248 255 254 251 248 241 238
185 182 179 186 188 190 197 195 204 208 217 232 239 232 222 218 225 230 235 218 206 208 232 255 266 291 288 297 278 271 286 297 285 269 281 274 258 260 265 255 244 242 241
183 177 184 190 196 208 206 202 201 214 212 215 231 242 237 235 249 255 254 235 212 206 211 221 239 249 259 255 258 264 272 306 292 278 244 273 244 257 260 258 251 243 240
186 185 190 192 203 215 211 210 208 203 211 217 221 230 246 245 251 262 281 287 270 244 216 203 222 239 239 235 233 256 250 246 252 261 236 270 259 255 259 261 255 248 250
186 191 196 195 197 217 212 210 201 200 209 218 214 213 212 235 250 232 263 297 290 275 249 221 223 237 240 233 221 224 235 256 268 274 199 242 257 254 266 271 262 254 255
194 199 193 190 196 217 206 191 179 182 206 234 232 218 208 224 251 242 231 283 303 301 297 282 259 255 256 251 225 194 221 264 283 279 239 216 253 264 273 274 271 254 251
190 187 192 192 194 209 211 195 180 184 206 244 253 238 228 227 243 230 210 229 267 278 302 330 328 318 297 283 245 206 199 205 239 265 252 206 245 233 287 275 264 263 263
Height
1547 1547 1548 1549 1550 1550 1551 1551 1552 1553 1554 1554 1555 1556 1556 1556 1556 1557 1557 1557 1557 1558 1557 1557 1558 1558 1559 1559 1559 1559 1560 1560 1560 1560 1560 1561 1561 1562 1562 1563 1564 1564 1565
1547 1548 1549 1549 1550 1551 1551 1552 1552 1553 1554 1554 1555 1555 1556 1556 1556 1557 1557 1557 1557 1557 1557 1557 1557 1557 1558 1558 1558 1558 1558 1558 1558 1558 1559 1559 1559 1560 1560 1561 1562 1562 1562
1548 1548 1549 1549 1550 1551 1551 1552 1553 1553 1554 1554 1555 1555 1556 1556 1556 1556 1557 1557 1557 1557 1557 1557 1557 1557 1557 1557 1557 1557 1557 1557 1557 1557 1557 1557 1558 1558 1559 1559 1559 1560 1560
1548 1549 1549 1550 1550 1551 1551 1552 1553 1553 1553 1554 1554 1555 1555 1556 1556 1556 1556 1556 1556 1556 1556 1556 1556 1556 1556 1556 1556 1556 1556 1556 1555 1555 1555 1555 1556 1556 1556 1557 1557 1557 1558
1548 1549 1549 1549 1550 1551 1551 1551 1552 1552 1553 1553 1554 1554 1554 1555 1555 1555 1555 1555 1556 1556 1556 1556 1556 1556 1556 1556 1555 1555 1555 1555 1554 1554 1554 1554 1554 1554 1554 1554 1554 1555 1555
1548 1549 1549 1549 1550 1550 1550 1551 1551 1551 1552 1552 1553 1553 1553 1554 1554 1554 1554 1554 1555 1555 1555 1555 1555 1555 1555 1555 1555 1554 1554 1553 1553 1552 1552 1552 1552 1552 1552 1552 1552 1552 1552
1548 1548 1549 1549 1549 1549 1550 1550 1550 1551 1551 1551 1552 1552 1552 1553 1553 1553 1553 1554 1554 1554 1554 1554 1554 1554 1554 1554 1553 1553 1552 1552 1551 1551 1551 1550 1550 1550 1550 1550 1550 1550 1550
1548 1548 1548 1548 1548 1548 1549 1549 1549 1550 1550 1551 1551 1551 1551 1553 1552 1552 1553 1553 1553 1553 1553 1553 1553 1553 1552 1552 1552 1551 1551 1550 1549 1549 1549 1548 1548 1548 1548 1548 1548 1547 1547
1547 1547 1548 1548 1548 1548 1548 1548 1549 1549 1549 1550 1550 1551 1551 1550 1551 1552 1552 1552 1552 1552 1552 1551 1551 1551 1551 1550 1550 1550 1549 1548 1548 1547 1547 1547 1546 1546 1546 1546 1546 1545 1545
1547 1547 1547 1547 1547 1547 1547 1548 1548 1548 1549 1549 1549 1549 1550 1550 1550 1550 1551 1550 1550 1550 1550 1550 1549 1549 1549 1548 1548 1547 1547 1546 1546 1545 1545 1545 1544 1544 1544 1544 1544 1543 1543
1546 1546 1547 1546 1546 1546 1547 1547 1547 1547 1548 1548 1548 1548 1548 1549 1549 1549 1548 1549 1549 1548 1549 1548 1548 1547 1547 1546 1546 1545 1545 1544 1544 1544 1543 1542 1542 1542 1541 1541 1541 1541 1541
1545 1545 1546 1546 1546 1546 1546 1546 1546 1546 1546 1547 1547 1547 1547 1547 1547 1547 1547 1546 1546 1547 1547 1546 1546 1545 1545 1544 1544 1543 1543 1542 1542 1542 1541 1540 1540 1539 1539 1539 1538 1538 1538
1543 1544 1544 1544 1544 1545 1545 1545 1545 1545 1545 1545 1546 1546 1546 1546 1546 1546 1546 1545 1545 1545 1545 1545 1544 1543 1543 1542 1541 1541 1540 1540 1540 1539 1539 1538 1538 1537 1537 1536 1536 1535 1535
1542 1542 1543 1543 1543 1543 1543 1543 1543 1543 1544 1544 1544 1544 1544 1544 1544 1544 1544 1544 1543 1543 1542 1542 1542 1541 1540 1540 1539 1539 1538 1537 1537 1537 1536 1536 1535 1534 1534 1534 1533 1533 1532
1540 1540 1541 1541 1541 1541 1542 1542 1542 1542 1542 1542 1542 1542 1542 1542 1542 1542 1542 1542 1542 1540 1540 1539 1539 1538 1538 1537 1537 1536 1535 1535 1534 1534 1533 1533 1532 1531 1531 1531 1530 1530 1530
1538 1538 1539 1539 1539 1540 1540 1540 1540 1540 1540 1540 1540 1540 1540 1540 1540 1540 1539 1539 1539 1539 1537 1537 1537 1536 1535 1535 1534 1533 1533 1532 1531 1531 1530 1530 1529 1528 1528 1528 1527 1527 1527
1536 1537 1537 1537 1537 1538 1538 1538 1538 1538 1538 1538 1538 1538 1538 1538 1538 1537 1537 1537 1536 1536 1535 1534 1534 1533 1532 1532 1531 1530 1529 1529 1528 1528 1527 1526 1526 1525 1525 1525 1524 1524 1524
1533 1534 1535 1535 1535 1535 1536 1536 1536 1536 1536 1536 1536 1536 1536 1536 1535 1535 1534 1534 1534 1533 1532 1531 1531 1530 1530 1529 1528 1527 1526 1525 1525 1524 1524 1523 1523 1522 1522 1522 1521 1521 1520
1531 1532 1532 1533 1533 1533 1533 1533 1534 1534 1534 1534 1534 1534 1533 1533 1533 1532 1532 1531 1531 1530 1530 1529 1528 1527 1527 1526 1525 1524 1523 1522 1522 1521 1521 1520 1519 1519 1518 1518 1518 1518 1517
1528 1529 1529 1530 1530 1531 1531 1531 1531 1531 1531 1531 1531 1531 1531 1531 1530 1530 1529 1528 1528 1527 1527 1526 1525 1524 1524 1523 1522 1521 1520 1519 1518 1518 1517 1516 1516 1516 1515 1515 1515 1514 1514
1525 1526 1526 1527 1527 1528 1528 1528 1528 1528 1529 1529 1529 1528 1528 1528 1528 1527 1527 1526 1525 1525 1524 1523 1522 1521 1520 1520 1519 1518 1517 1516 1515 1514 1513 1513 1512 1512 1511 1511 1511 1510 1510
1522 1523 1523 1524 1524 1525 1525 1526 1526 1525 1525 1525 1525 1525 1525 1525 1525 1524 1524 1523 1523 1522 1521 1520 1519 1518 1517 1517 1516 1515 1515 1513 1512 1512 1511 1510 1509 1508 1508 1508 1507 1507 1507
1519 1520 1520 1521 1521 1521 1522 1522 1522 1522 1522 1522 1522 1522 1522 1522 1521 1521 1520 1519 1519 1518 1518 1518 1516 1515 1515 1514 1513 1512 1512 1511 1510 1509 1508 1506 1506 1505 1505 1505 1504 1504 1504
1515 1516 1517 1518 1518 1518 1518 1519 1519 1519 1519 1519 1519 1518 1518 1518 1518 1518 1517 1516 1516 1515 1515 1514 1513 1513 1512 1511 1510 1510 1509 1508 1507 1506 1505 1504 1503 1502 1502 1501 1501 1501 1501
1512 1513 1514 1514 1514 1515 1515 1515 1516 1515 1515 1515 1515 1515 1515 1515 1515 1514 1514 1513 1512 1512 1512 1511 1510 1510 1509 1508 1507 1507 1506 1505 1503 1503 1502 1501 1499 1499 1498 1498 1498 1498 1497
1509 1510 1511 1511 1511 1512 1512 1512 1512 1512 1512 1512 1512 1512 1512 1512 1511 1511 1510 1510 1509 1509 1508 1507 1507 1506 1506 1505 1504 1503 1503 1502 1501 1500 1499 1498 1497 1496 1495 1494 1494 1494 1494